QPF
0.01 0.01 0.01 0.00 0.00 0.00 0.01 0.01 0.02 0.02 0.01 0.02 0.03 0.02 0.02 0.03 0.03 0.03 0.03 0.02 0.02 0.02 0.03 0.04 0.07 0.04 0.03 0.04 0.04 0.04 0.04 0.04 0.05 0.06 0.07 0.08 0.07 0.04 0.04 0.04 0.04 0.04 0.04
0.01 0.01 0.01 0.01 0.01 0.01 0.01 0.01 0.01 0.01 0.01 0.01 0.01 0.01 0.01 0.02 0.02 0.04 0.03 0.03 0.02 0.02 0.03 0.03 0.02 0.02 0.03 0.02 0.03 0.05 0.05 0.04 0.04 0.05 0.05 0.05 0.05 0.05 0.04 0.05 0.05 0.04 0.05
0.01 0.00 0.01 0.02 0.01 0.01 0.01 0.00 0.01 0.01 0.01 0.01 0.01 0.02 0.02 0.02 0.03 0.03 0.04 0.03 0.02 0.01 0.02 0.03 0.02 0.02 0.02 0.03 0.05 0.05 0.04 0.04 0.04 0.03 0.04 0.04 0.03 0.03 0.04 0.05 0.05 0.04 0.03
0.01 0.01 0.01 0.01 0.01 0.02 0.02 0.01 0.01 0.02 0.01 0.01 0.01 0.02 0.02 0.03 0.02 0.03 0.04 0.03 0.03 0.03 0.03 0.03 0.03 0.02 0.02 0.03 0.04 0.04 0.03 0.04 0.04 0.03 0.02 0.04 0.02 0.02 0.03 0.02 0.02 0.02 0.02
0.01 0.02 0.03 0.02 0.02 0.04 0.03 0.01 0.01 0.01 0.01 0.01 0.01 0.02 0.03 0.04 0.04 0.04 0.04 0.05 0.04 0.04 0.02 0.03 0.04 0.03 0.01 0.02 0.02 0.02 0.02 0.03 0.02 0.03 0.03 0.02 0.01 0.01 0.02 0.01 0.01 0.01 0.02
0.01 0.01 0.03 0.04 0.04 0.04 0.01 0.00 0.01 0.01 0.01 0.02 0.03 0.04 0.05 0.05 0.04 0.04 0.05 0.04 0.04 0.03 0.02 0.03 0.04 0.03 0.03 0.03 0.01 0.01 0.02 0.02 0.02 0.02 0.01 0.02 0.01 0.02 0.03 0.01 0.01 0.01 0.01
0.01 0.01 0.02 0.02 0.03 0.01 0.01 0.01 0.01 0.01 0.01 0.03 0.04 0.06 0.04 0.03 0.03 0.03 0.03 0.03 0.05 0.05 0.03 0.03 0.04 0.04 0.04 0.03 0.02 0.01 0.01 0.02 0.02 0.03 0.04 0.03 0.03 0.02 0.02 0.02 0.01 0.01 0.01
0.01 0.01 0.01 0.01 0.01 0.01 0.01 0.01 0.01 0.01 0.02 0.02 0.04 0.05 0.04 0.04 0.03 0.02 0.03 0.04 0.04 0.04 0.03 0.03 0.04 0.04 0.03 0.02 0.02 0.01 0.01 0.02 0.02 0.02 0.03 0.03 0.03 0.03 0.02 0.02 0.02 0.02 0.02
0.01 0.01 0.00 0.01 0.01 0.01 0.01 0.00 0.01 0.02 0.02 0.02 0.02 0.04 0.04 0.05 0.05 0.04 0.03 0.03 0.04 0.03 0.03 0.04 0.03 0.03 0.03 0.03 0.02 0.02 0.02 0.02 0.01 0.01 0.01 0.01 0.01 0.02 0.02 0.01 0.01 0.02 0.02
0.03 0.01 0.01 0.01 0.02 0.02 0.01 0.02 0.04 0.04 0.03 0.03 0.04 0.04 0.04 0.07 0.09 0.07 0.04 0.03 0.03 0.03 0.02 0.02 0.02 0.03 0.03 0.03 0.02 0.03 0.02 0.02 0.01 0.00 0.00 0.01 0.02 0.02 0.02 0.01 0.01 0.02 0.03
0.06 0.03 0.03 0.05 0.04 0.02 0.02 0.02 0.02 0.03 0.03 0.03 0.03 0.04 0.04 0.05 0.07 0.05 0.04 0.03 0.02 0.02 0.02 0.02 0.02 0.03 0.03 0.02 0.02 0.01 0.02 0.01 0.01 0.01 0.01 0.01 0.01 0.01 0.01 0.02 0.03 0.03 0.03
0.06 0.04 0.05 0.07 0.03 0.02 0.01 0.01 0.02 0.03 0.04 0.04 0.04 0.05 0.05 0.04 0.04 0.03 0.03 0.02 0.02 0.02 0.02 0.02 0.02 0.02 0.02 0.02 0.01 0.01 0.00 0.00 0.00 0.00 0.01 0.02 0.02 0.01 0.02 0.03 0.03 0.04 0.04
0.05 0.04 0.03 0.03 0.04 0.03 0.02 0.02 0.03 0.04 0.05 0.06 0.08 0.07 0.05 0.04 0.04 0.03 0.02 0.02 0.02 0.02 0.02 0.02 0.01 0.02 0.02 0.02 0.01 0.01 0.00 0.01 0.00 0.00 0.01 0.01 0.03 0.03 0.03 0.03 0.03 0.04 0.04
0.04 0.03 0.02 0.03 0.03 0.04 0.04 0.05 0.06 0.05 0.05 0.07 0.09 0.07 0.05 0.04 0.04 0.03 0.03 0.02 0.02 0.03 0.03 0.03 0.02 0.02 0.02 0.01 0.01 0.01 0.00 0.00 0.00 0.00 0.01 0.02 0.04 0.08 0.06 0.03 0.02 0.03 0.04
0.04 0.02 0.02 0.03 0.04 0.04 0.05 0.07 0.09 0.08 0.07 0.09 0.12 0.10 0.06 0.06 0.05 0.04 0.03 0.02 0.02 0.02 0.02 0.02 0.02 0.02 0.02 0.01 0.01 0.01 0.01 0.01 0.01 0.01 0.01 0.02 0.04 0.09 0.08 0.05 0.04 0.02 0.02
0.05 0.03 0.02 0.02 0.03 0.04 0.05 0.08 0.11 0.12 0.10 0.11 0.13 0.13 0.08 0.07 0.05 0.03 0.03 0.02 0.02 0.02 0.02 0.02 0.02 0.02 0.01 0.02 0.02 0.02 0.01 0.01 0.01 0.01 0.01 0.02 0.02 0.04 0.04 0.03 0.02 0.01 0.01
0.05 0.02 0.02 0.02 0.02 0.03 0.03 0.06 0.06 0.07 0.08 0.10 0.13 0.14 0.12 0.10 0.07 0.05 0.05 0.03 0.03 0.03 0.03 0.02 0.03 0.02 0.01 0.02 0.02 0.03 0.03 0.02 0.01 0.01 0.01 0.01 0.01 0.01 0.01 0.01 0.01 0.01 0.01
0.04 0.03 0.02 0.02 0.02 0.02 0.03 0.05 0.06 0.06 0.07 0.08 0.09 0.12 0.13 0.14 0.12 0.11 0.10 0.06 0.05 0.04 0.04 0.04 0.03 0.03 0.02 0.03 0.04 0.04 0.03 0.03 0.03 0.03 0.02 0.02 0.02 0.01 0.01 0.01 0.00 0.00 0.00
0.03 0.03 0.02 0.03 0.03 0.02 0.02 0.02 0.04 0.05 0.05 0.05 0.08 0.08 0.08 0.08 0.10 0.12 0.14 0.09 0.05 0.04 0.04 0.04 0.05 0.04 0.03 0.06 0.06 0.06 0.04 0.04 0.03 0.04 0.03 0.03 0.02 0.01 0.01 0.01 0.01 0.00 0.00
0.02 0.03 0.04 0.03 0.03 0.02 0.02 0.03 0.03 0.03 0.03 0.03 0.03 0.03 0.05 0.06 0.09 0.13 0.10 0.08 0.06 0.04 0.05 0.06 0.09 0.11 0.10 0.11 0.09 0.07 0.04 0.04 0.02 0.01 0.01 0.01 0.00 0.00 0.00 0.01 0.01 0.01 0.01
0.01 0.02 0.04 0.04 0.03 0.03 0.04 0.04 0.04 0.03 0.03 0.02 0.02 0.04 0.08 0.11 0.11 0.15 0.12 0.07 0.05 0.05 0.07 0.10 0.09 0.08 0.09 0.09 0.08 0.07 0.05 0.05 0.02 0.01 0.00 0.01 0.01 0.01 0.01 0.01 0.02 0.02 0.02
0.01 0.02 0.04 0.05 0.04 0.04 0.05 0.05 0.03 0.02 0.03 0.02 0.02 0.07 0.14 0.11 0.10 0.08 0.06 0.05 0.04 0.04 0.06 0.08 0.11 0.13 0.10 0.08 0.09 0.10 0.08 0.04 0.02 0.01 0.01 0.01 0.02 0.02 0.02 0.02 0.02 0.03 0.03
0.01 0.02 0.03 0.05 0.05 0.05 0.06 0.05 0.03 0.03 0.03 0.03 0.02 0.04 0.06 0.05 0.04 0.04 0.02 0.02 0.03 0.04 0.05 0.07 0.07 0.07 0.09 0.08 0.08 0.08 0.07 0.05 0.03 0.02 0.02 0.02 0.02 0.02 0.03 0.03 0.04 0.04 0.04
0.02 0.02 0.03 0.03 0.03 0.05 0.07 0.06 0.04 0.03 0.02 0.02 0.02 0.02 0.02 0.02 0.03 0.04 0.04 0.03 0.02 0.02 0.02 0.03 0.05 0.05 0.04 0.04 0.04 0.04 0.04 0.04 0.03 0.02 0.02 0.02 0.02 0.02 0.02 0.03 0.03 0.03 0.03
0.02 0.03 0.03 0.03 0.03 0.05 0.08 0.07 0.04 0.03 0.02 0.02 0.01 0.01 0.02 0.02 0.03 0.03 0.04 0.03 0.03 0.03 0.02 0.02 0.02 0.01 0.01 0.02 0.03 0.03 0.02 0.02 0.02 0.02 0.02 0.01 0.01 0.01 0.01 0.01 0.02 0.03 0.03
0.02 0.02 0.03 0.05 0.07 0.07 0.05 0.06 0.04 0.03 0.03 0.02 0.01 0.01 0.02 0.03 0.03 0.03 0.02 0.03 0.03 0.03 0.02 0.02 0.01 0.01 0.01 0.01 0.02 0.02 0.02 0.02 0.03 0.03 0.02 0.02 0.02 0.02 0.03 0.03 0.04 0.04 0.04
MSLP
1012.55 1012.69 1012.80 1012.85 1012.85 1012.82 1012.80 1012.81 1012.89 1013.03 1013.22 1013.40 1013.55 1013.61 1013.57 1013.43 1013.21 1012.98 1012.77 1012.63 1012.59 1012.67 1012.82 1013.03 1013.23 1013.39 1013.47 1013.47 1013.41 1013.31 1013.20 1013.11 1013.06 1013.05 1013.07 1013.09 1013.08 1013.04 1012.94 1012.82 1012.68 1012.56 1012.49
1012.41 1012.58 1012.71 1012.76 1012.74 1012.68 1012.62 1012.61 1012.70 1012.89 1013.15 1013.44 1013.68 1013.84 1013.86 1013.75 1013.53 1013.26 1013.00 1012.82 1012.76 1012.83 1013.01 1013.25 1013.51 1013.72 1013.84 1013.85 1013.78 1013.64 1013.49 1013.36 1013.28 1013.27 1013.29 1013.34 1013.37 1013.35 1013.27 1013.13 1012.95 1012.77 1012.60
1012.17 1012.39 1012.56 1012.62 1012.60 1012.51 1012.42 1012.40 1012.50 1012.73 1013.05 1013.43 1013.78 1014.03 1014.13 1014.08 1013.88 1013.61 1013.33 1013.12 1013.04 1013.10 1013.28 1013.55 1013.84 1014.07 1014.20 1014.22 1014.12 1013.96 1013.76 1013.60 1013.49 1013.47 1013.51 1013.59 1013.66 1013.68 1013.63 1013.49 1013.29 1013.05 1012.81
1011.79 1012.09 1012.32 1012.44 1012.43 1012.34 1012.24 1012.21 1012.31 1012.55 1012.93 1013.38 1013.82 1014.16 1014.36 1014.37 1014.22 1013.97 1013.70 1013.49 1013.39 1013.44 1013.62 1013.89 1014.17 1014.41 1014.54 1014.54 1014.43 1014.23 1014.01 1013.82 1013.70 1013.67 1013.73 1013.84 1013.95 1014.01 1013.99 1013.87 1013.65 1013.37 1013.06
1011.28 1011.68 1012.01 1012.20 1012.25 1012.18 1012.09 1012.05 1012.15 1012.40 1012.80 1013.30 1013.80 1014.23 1014.50 1014.59 1014.51 1014.31 1014.07 1013.86 1013.76 1013.79 1013.95 1014.20 1014.47 1014.69 1014.81 1014.81 1014.68 1014.47 1014.24 1014.04 1013.92 1013.90 1013.98 1014.11 1014.25 1014.34 1014.34 1014.22 1014.00 1013.68 1013.32
1010.64 1011.17 1011.62 1011.92 1012.05 1012.04 1011.97 1011.94 1012.03 1012.28 1012.68 1013.20 1013.74 1014.22 1014.56 1014.72 1014.71 1014.57 1014.37 1014.18 1014.08 1014.10 1014.24 1014.46 1014.70 1014.90 1015.01 1015.00 1014.88 1014.68 1014.46 1014.28 1014.18 1014.17 1014.27 1014.41 1014.57 1014.67 1014.67 1014.56 1014.31 1013.98 1013.58
1009.92 1010.56 1011.15 1011.57 1011.81 1011.88 1011.87 1011.86 1011.95 1012.19 1012.58 1013.09 1013.64 1014.15 1014.54 1014.77 1014.82 1014.73 1014.58 1014.43 1014.33 1014.34 1014.45 1014.64 1014.86 1015.04 1015.14 1015.14 1015.04 1014.88 1014.70 1014.56 1014.48 1014.51 1014.61 1014.76 1014.91 1015.01 1015.00 1014.86 1014.61 1014.26 1013.84
1009.15 1009.90 1010.61 1011.16 1011.51 1011.68 1011.74 1011.78 1011.88 1012.12 1012.50 1012.99 1013.53 1014.05 1014.46 1014.73 1014.84 1014.81 1014.71 1014.59 1014.51 1014.51 1014.61 1014.77 1014.95 1015.12 1015.23 1015.25 1015.20 1015.09 1014.97 1014.88 1014.86 1014.91 1015.02 1015.16 1015.29 1015.36 1015.33 1015.17 1014.91 1014.54 1014.13
1008.42 1009.24 1010.02 1010.68 1011.14 1011.41 1011.56 1011.67 1011.81 1012.06 1012.43 1012.90 1013.43 1013.94 1014.37 1014.66 1014.82 1014.84 1014.79 1014.71 1014.65 1014.66 1014.73 1014.88 1015.04 1015.21 1015.32 1015.38 1015.38 1015.34 1015.30 1015.28 1015.30 1015.38 1015.50 1015.63 1015.73 1015.76 1015.69 1015.51 1015.23 1014.87 1014.47
1007.80 1008.61 1009.43 1010.14 1010.69 1011.06 1011.31 1011.50 1011.71 1012.00 1012.38 1012.85 1013.36 1013.86 1014.29 1014.61 1014.80 1014.87 1014.87 1014.83 1014.80 1014.82 1014.90 1015.03 1015.19 1015.35 1015.48 1015.58 1015.63 1015.66 1015.69 1015.73 1015.81 1015.92 1016.04 1016.15 1016.21 1016.20 1016.10 1015.90 1015.62 1015.27 1014.90
1007.36 1008.11 1008.89 1009.60 1010.19 1010.64 1010.98 1011.27 1011.57 1011.92 1012.34 1012.83 1013.34 1013.84 1014.27 1014.60 1014.82 1014.94 1014.99 1015.00 1015.01 1015.06 1015.15 1015.28 1015.44 1015.60 1015.75 1015.87 1015.97 1016.06 1016.15 1016.25 1016.36 1016.49 1016.61 1016.70 1016.73 1016.69 1016.56 1016.34 1016.07 1015.75 1015.42
1007.15 1007.77 1008.44 1009.09 1009.67 1010.17 1010.59 1010.98 1011.38 1011.82 1012.31 1012.83 1013.36 1013.87 1014.31 1014.66 1014.91 1015.07 1015.17 1015.24 1015.31 1015.39 1015.51 1015.66 1015.82 1015.98 1016.14 1016.28 1016.41 1016.53 1016.65 1016.79 1016.93 1017.06 1017.18 1017.25 1017.26 1017.19 1017.04 1016.83 1016.57 1016.28 1016.00
1007.21 1007.63 1008.14 1008.67 1009.20 1009.70 1010.18 1010.67 1011.17 1011.71 1012.27 1012.85 1013.41 1013.93 1014.38 1014.75 1015.03 1015.24 1015.41 1015.54 1015.68 1015.82 1015.98 1016.15 1016.32 1016.48 1016.64 1016.78 1016.91 1017.04 1017.18 1017.32 1017.47 1017.60 1017.71 1017.77 1017.76 1017.68 1017.53 1017.33 1017.09 1016.84 1016.61
1007.51 1007.71 1008.01 1008.39 1008.82 1009.29 1009.80 1010.36 1010.95 1011.58 1012.22 1012.85 1013.45 1013.98 1014.45 1014.84 1015.16 1015.43 1015.66 1015.87 1016.08 1016.30 1016.51 1016.71 1016.90 1017.07 1017.21 1017.33 1017.45 1017.56 1017.68 1017.81 1017.95 1018.08 1018.17 1018.22 1018.21 1018.13 1017.99 1017.81 1017.60 1017.38 1017.19
1008.01 1007.98 1008.06 1008.26 1008.56 1008.98 1009.49 1010.09 1010.75 1011.45 1012.15 1012.82 1013.45 1014.01 1014.49 1014.90 1015.26 1015.58 1015.89 1016.19 1016.48 1016.78 1017.05 1017.30 1017.51 1017.68 1017.80 1017.90 1017.97 1018.05 1018.13 1018.24 1018.35 1018.46 1018.55 1018.60 1018.59 1018.52 1018.40 1018.23 1018.05 1017.86 1017.69
1008.64 1008.40 1008.28 1008.29 1008.47 1008.80 1009.28 1009.89 1010.59 1011.33 1012.07 1012.77 1013.41 1013.97 1014.47 1014.90 1015.30 1015.68 1016.06 1016.45 1016.84 1017.22 1017.57 1017.87 1018.10 1018.27 1018.37 1018.42 1018.45 1018.48 1018.52 1018.58 1018.67 1018.76 1018.84 1018.89 1018.89 1018.84 1018.74 1018.59 1018.42 1018.25 1018.08
1009.31 1008.91 1008.62 1008.48 1008.53 1008.78 1009.22 1009.81 1010.52 1011.26 1012.01 1012.72 1013.35 1013.91 1014.40 1014.85 1015.28 1015.72 1016.17 1016.65 1017.12 1017.59 1018.01 1018.36 1018.62 1018.79 1018.87 1018.89 1018.87 1018.84 1018.83 1018.85 1018.90 1018.98 1019.05 1019.11 1019.12 1019.09 1019.00 1018.87 1018.71 1018.53 1018.36
1009.94 1009.45 1009.05 1008.80 1008.76 1008.94 1009.33 1009.89 1010.57 1011.29 1012.02 1012.70 1013.31 1013.85 1014.33 1014.79 1015.24 1015.73 1016.25 1016.80 1017.36 1017.90 1018.39 1018.78 1019.06 1019.23 1019.29 1019.27 1019.21 1019.13 1019.07 1019.05 1019.08 1019.13 1019.20 1019.26 1019.29 1019.27 1019.20 1019.07 1018.91 1018.72 1018.53
1010.49 1009.97 1009.53 1009.24 1009.15 1009.28 1009.62 1010.14 1010.77 1011.46 1012.14 1012.77 1013.35 1013.85 1014.32 1014.78 1015.25 1015.77 1016.34 1016.95 1017.57 1018.16 1018.69 1019.12 1019.41 1019.58 1019.62 1019.57 1019.47 1019.35 1019.25 1019.20 1019.20 1019.24 1019.31 1019.37 1019.41 1019.40 1019.33 1019.21 1019.04 1018.84 1018.62
1010.92 1010.45 1010.04 1009.75 1009.66 1009.78 1010.09 1010.57 1011.16 1011.79 1012.41 1012.99 1013.51 1013.98 1014.42 1014.87 1015.35 1015.89 1016.48 1017.12 1017.78 1018.41 1018.96 1019.39 1019.69 1019.84 1019.86 1019.79 1019.66 1019.51 1019.39 1019.31 1019.29 1019.32 1019.38 1019.44 1019.48 1019.47 1019.41 1019.28 1019.10 1018.89 1018.65
1011.24 1010.88 1010.55 1010.34 1010.28 1010.42 1010.72 1011.17 1011.71 1012.28 1012.83 1013.35 1013.82 1014.24 1014.65 1015.08 1015.56 1016.10 1016.70 1017.35 1018.01 1018.63 1019.18 1019.60 1019.88 1020.01 1020.02 1019.92 1019.77 1019.61 1019.48 1019.39 1019.36 1019.38 1019.43 1019.48 1019.52 1019.50 1019.43 1019.30 1019.11 1018.89 1018.64
1011.50 1011.28 1011.08 1010.97 1010.99 1011.16 1011.47 1011.89 1012.38 1012.89 1013.38 1013.83 1014.24 1014.62 1015.00 1015.40 1015.86 1016.38 1016.97 1017.60 1018.23 1018.83 1019.34 1019.73 1019.98 1020.09 1020.08 1019.98 1019.82 1019.66 1019.52 1019.43 1019.40 1019.41 1019.45 1019.49 1019.51 1019.49 1019.40 1019.26 1019.07 1018.84 1018.60
1011.72 1011.66 1011.60 1011.61 1011.72 1011.94 1012.26 1012.66 1013.10 1013.54 1013.97 1014.36 1014.71 1015.04 1015.39 1015.76 1016.19 1016.69 1017.24 1017.83 1018.41 1018.96 1019.42 1019.77 1019.98 1020.07 1020.05 1019.95 1019.80 1019.65 1019.53 1019.45 1019.41 1019.42 1019.45 1019.47 1019.47 1019.42 1019.32 1019.17 1018.98 1018.76 1018.53
1011.95 1012.04 1012.13 1012.26 1012.45 1012.70 1013.03 1013.40 1013.78 1014.16 1014.51 1014.84 1015.13 1015.42 1015.73 1016.07 1016.47 1016.93 1017.44 1017.97 1018.50 1018.98 1019.39 1019.69 1019.88 1019.95 1019.93 1019.84 1019.72 1019.60 1019.50 1019.44 1019.41 1019.42 1019.43 1019.43 1019.40 1019.32 1019.20 1019.03 1018.84 1018.63 1018.42
1012.21 1012.43 1012.64 1012.86 1013.10 1013.38 1013.69 1014.01 1014.33 1014.64 1014.92 1015.17 1015.41 1015.66 1015.93 1016.25 1016.62 1017.04 1017.50 1017.98 1018.45 1018.87 1019.23 1019.49 1019.66 1019.73 1019.73 1019.67 1019.60 1019.52 1019.46 1019.42 1019.41 1019.41 1019.40 1019.37 1019.30 1019.19 1019.04 1018.85 1018.65 1018.46 1018.28
1012.52 1012.83 1013.11 1013.39 1013.66 1013.93 1014.19 1014.45 1014.69 1014.91 1015.11 1015.30 1015.49 1015.70 1015.94 1016.23 1016.57 1016.96 1017.38 1017.82 1018.24 1018.62 1018.94 1019.18 1019.34 1019.43 1019.47 1019.46 1019.44 1019.42 1019.40 1019.40 1019.40 1019.39 1019.36 1019.29 1019.18 1019.03 1018.84 1018.63 1018.42 1018.23 1018.08
Thickness
5807 5808 5806 5804 5800 5796 5792 5789 5786 5784 5783 5779 5776 5773 5771 5771 5771 5771 5771 5770 5770 5769 5769 5768 5767 5766 5764 5762 5761 5759 5757 5754 5754 5749 5745 5745 5746 5745 5744 5743 5741 5739 5738
5806 5806 5805 5804 5800 5796 5794 5791 5788 5786 5784 5782 5780 5777 5774 5773 5772 5772 5772 5771 5771 5770 5770 5769 5768 5766 5764 5761 5760 5758 5754 5752 5752 5747 5740 5734 5735 5738 5741 5740 5738 5736 5736
5809 5808 5806 5804 5802 5798 5796 5795 5791 5789 5787 5785 5782 5779 5775 5773 5771 5770 5770 5771 5771 5770 5770 5770 5768 5766 5764 5761 5760 5758 5754 5750 5750 5750 5743 5733 5727 5730 5734 5735 5735 5734 5733
5814 5812 5810 5806 5805 5803 5800 5797 5794 5791 5789 5787 5782 5777 5772 5768 5769 5770 5770 5771 5772 5771 5771 5770 5768 5766 5764 5762 5760 5759 5756 5753 5748 5748 5748 5745 5739 5730 5725 5728 5731 5731 5730
5819 5816 5814 5811 5810 5808 5803 5799 5795 5792 5791 5788 5783 5779 5775 5773 5773 5772 5770 5770 5770 5770 5770 5769 5767 5765 5763 5761 5760 5758 5756 5754 5750 5747 5745 5743 5739 5736 5728 5722 5724 5726 5727
5822 5819 5818 5815 5811 5809 5805 5801 5796 5793 5791 5788 5784 5781 5777 5775 5773 5770 5769 5768 5769 5769 5768 5767 5766 5764 5762 5760 5759 5758 5756 5754 5752 5749 5747 5742 5738 5734 5730 5724 5721 5720 5722
5824 5820 5816 5813 5810 5807 5804 5801 5797 5793 5792 5789 5786 5783 5781 5778 5774 5772 5769 5768 5766 5766 5767 5767 5765 5764 5762 5760 5759 5757 5755 5754 5751 5749 5747 5745 5743 5740 5734 5727 5722 5719 5719
5824 5822 5819 5816 5813 5810 5806 5802 5798 5795 5793 5790 5787 5784 5782 5779 5776 5774 5772 5769 5768 5767 5767 5766 5765 5764 5762 5760 5758 5756 5755 5753 5751 5749 5747 5745 5743 5741 5737 5731 5724 5716 5714
5825 5823 5821 5818 5816 5812 5809 5805 5800 5796 5793 5791 5788 5785 5783 5780 5777 5776 5774 5771 5770 5768 5767 5766 5765 5763 5761 5759 5758 5755 5754 5752 5751 5749 5747 5745 5743 5742 5739 5735 5730 5721 5711
5824 5824 5822 5820 5818 5815 5811 5807 5802 5798 5795 5792 5789 5787 5784 5781 5779 5776 5773 5772 5771 5769 5767 5765 5763 5762 5760 5759 5756 5754 5753 5751 5749 5748 5746 5744 5742 5740 5738 5735 5730 5726 5718
5823 5823 5821 5821 5818 5814 5810 5806 5802 5797 5794 5792 5789 5786 5783 5782 5779 5776 5774 5773 5771 5768 5766 5764 5762 5760 5759 5757 5755 5752 5751 5749 5747 5746 5745 5742 5741 5738 5735 5732 5728 5724 5720
5824 5823 5820 5818 5816 5813 5810 5805 5802 5798 5795 5791 5788 5785 5783 5781 5778 5776 5775 5773 5770 5768 5765 5763 5761 5759 5757 5756 5753 5751 5750 5747 5745 5744 5742 5740 5739 5735 5732 5729 5725 5722 5719
5820 5818 5816 5815 5814 5812 5809 5805 5802 5798 5795 5791 5786 5782 5780 5779 5776 5775 5774 5772 5769 5767 5764 5762 5759 5757 5756 5754 5752 5750 5748 5746 5744 5742 5740 5738 5735 5731 5729 5726 5723 5719 5716
5816 5814 5812 5812 5811 5811 5808 5805 5801 5798 5793 5788 5783 5780 5777 5777 5775 5774 5772 5771 5768 5765 5762 5760 5758 5757 5755 5753 5751 5749 5746 5744 5742 5740 5738 5736 5733 5729 5727 5724 5720 5716 5711
5809 5808 5808 5808 5808 5807 5805 5803 5799 5797 5793 5787 5781 5778 5777 5775 5773 5771 5770 5768 5766 5764 5761 5758 5756 5755 5753 5751 5748 5746 5744 5740 5738 5736 5734 5733 5731 5729 5725 5722 5717 5713 5707
5806 5805 5805 5805 5805 5804 5802 5800 5796 5793 5790 5784 5779 5777 5775 5773 5771 5768 5767 5765 5762 5761 5758 5756 5753 5752 5751 5750 5747 5744 5741 5738 5734 5732 5730 5729 5727 5725 5722 5719 5716 5711 5705
5805 5803 5802 5803 5804 5803 5801 5796 5794 5791 5786 5782 5778 5776 5773 5770 5769 5767 5764 5761 5759 5757 5754 5752 5750 5748 5747 5747 5744 5741 5737 5734 5731 5728 5725 5724 5722 5720 5717 5714 5711 5708 5705
5804 5803 5802 5801 5802 5801 5799 5796 5792 5787 5783 5779 5776 5774 5771 5768 5766 5764 5760 5757 5755 5752 5751 5748 5747 5744 5744 5742 5740 5737 5733 5730 5727 5724 5722 5719 5716 5715 5712 5709 5705 5702 5700
5803 5803 5803 5801 5798 5796 5795 5792 5787 5784 5780 5776 5773 5771 5769 5766 5762 5759 5756 5754 5751 5748 5747 5745 5743 5740 5739 5737 5734 5731 5727 5724 5722 5720 5718 5716 5712 5711 5707 5703 5699 5696 5694
5799 5799 5799 5797 5794 5792 5791 5786 5781 5778 5776 5774 5772 5769 5767 5763 5759 5756 5753 5751 5748 5745 5744 5741 5739 5737 5734 5732 5729 5726 5722 5718 5716 5714 5713 5712 5709 5706 5703 5698 5693 5689 5687
5793 5793 5791 5788 5787 5787 5784 5779 5776 5773 5774 5772 5769 5766 5763 5759 5756 5752 5749 5746 5743 5740 5738 5736 5734 5731 5729 5727 5724 5721 5718 5714 5711 5709 5707 5706 5704 5701 5697 5694 5690 5687 5683
5785 5785 5781 5779 5779 5780 5777 5772 5769 5770 5769 5766 5763 5759 5757 5755 5753 5747 5744 5741 5738 5733 5731 5728 5725 5724 5723 5721 5718 5715 5712 5711 5707 5704 5703 5701 5698 5694 5691 5688 5686 5682 5678
5776 5776 5773 5770 5769 5770 5770 5765 5763 5763 5761 5758 5755 5753 5751 5749 5747 5743 5738 5735 5732 5728 5724 5721 5718 5717 5716 5714 5712 5709 5707 5704 5701 5699 5697 5694 5691 5687 5684 5682 5679 5675 5670
5767 5766 5764 5761 5759 5761 5761 5759 5757 5756 5753 5750 5747 5746 5743 5741 5738 5736 5733 5729 5726 5723 5720 5716 5714 5711 5709 5707 5705 5702 5699 5697 5694 5691 5688 5685 5683 5680 5677 5674 5670 5667 5664
5758 5757 5755 5753 5752 5753 5752 5752 5750 5749 5745 5742 5740 5738 5736 5734 5730 5728 5726 5724 5723 5721 5717 5714 5711 5706 5703 5703 5700 5696 5693 5690 5687 5682 5678 5675 5672 5670 5667 5664 5662 5660 5656
5748 5747 5746 5745 5745 5745 5744 5744 5743 5741 5738 5734 5732 5731 5729 5726 5723 5720 5717 5717 5716 5715 5713 5711 5707 5705 5702 5699 5695 5691 5688 5684 5680 5674 5670 5667 5664 5662 5660 5657 5654 5652 5649